• Join FlightAware (Why Join?)
  • Login
  • US Flag 
12:23PM EDT


 

Airport Tracker/Info


-or-


 

Live Flight TrackerFlight Track Log ✈ SRY328 ✈ 27-Apr-2012 ✈ KBKL - KRIC

Flight Track Log - Related Links

Times and Time Zones

All times are in EDT time to prevent confusion due to time zone crossing. See the SRY328 flight status page for this flight to view local times or setup timezone preferences in your user account.

Time Position Orientation Groundspeed Altitude Reporting Facility
EDT Latitude Longitude Course Direction KTS MPH feet Rate Location/Type
08:10AM 41.5275 -81.6592 31° Northeast 194 223 1,400  Level Cleveland Center
08:11AM 41.5550 -81.6375 16° North 221 254 1,900 1,800 Climbing Cleveland Center
08:12AM 41.6114 -81.6161 81° East 227 261 4,200 3,060 Climbing Cleveland Center
08:13AM 41.6225 -81.5219 153° Southeast 257 296 8,400 3,300 Climbing Cleveland Center
08:14AM 41.5603 -81.4794 157° South 299 344 11,100 2,820 Climbing Cleveland Center
08:15AM 41.4814 -81.4339 155° Southeast 309 356 14,100 2,700 Climbing Cleveland Center
08:16AM 41.3964 -81.3803 155° Southeast 326 375 16,600 2,160 Climbing Cleveland Center
08:17AM 41.2989 -81.3211 154° Southeast 364 419 18,500 1,860 Climbing Cleveland Center
08:18AM 41.2056 -81.2619 156° South 396 456 20,400 2,160 Climbing Cleveland Center
08:19AM 41.0994 -81.2003 165° South 411 473 22,900 5,280 Climbing Cleveland Center
08:20AM 40.9914 -81.1608 165° South 411 473 31,000 2,100 Climbing Cleveland Center
08:21AM 40.8831 -81.1214 165° South 400 460 27,200 -1,260 Descending Cleveland Center
08:22AM 40.7728 -81.0822 164° South 400 460 28,500 900 Climbing Cleveland Center
08:23AM 40.6603 -81.0403 165° South 411 473 29,000 240 Climbing Cleveland Center
08:24AM 40.5397 -80.9983 158° South 428 493 29,000  Level Cleveland Center
08:25AM 40.4231 -80.9350 157° South 445 512 29,000  Level Cleveland Center
08:26AM 40.3044 -80.8689 157° South 450 518 29,000  Level Cleveland Center
08:27AM 40.1858 -80.8033 156° South 455 524 29,000  Level Cleveland Center
08:28AM 40.0711 -80.7378 157° South 455 524 29,000  Level Cleveland Center
08:29AM 39.9544 -80.6725 157° South 455 524 29,000  Level Cleveland Center
08:30AM 39.8358 -80.6075 156° South 455 524 29,000  Level Cleveland Center
08:31AM 39.7169 -80.5400 158° South 455 524 29,000  Level Cleveland Center
08:33AM 39.5347 -80.4433 157° South 446 513 29,000  Level Washington Center
08:34AM 39.4144 -80.3761 158° South 446 513 29,000  Level Washington Center
08:35AM 39.3000 -80.3150 157° South 446 513 29,000  Level Washington Center
08:36AM 39.1817 -80.2511 156° South 451 519 29,000 -120 Level Washington Center
08:37AM 39.0656 -80.1847 161° South 451 519 28,800 -840 Descending Washington Center
08:38AM 38.9528 -80.1350 157° South 446 513 27,400 -1,860 Descending Washington Center
08:39AM 38.8403 -80.0747 157° South 441 507 25,200 -1,200 Descending Washington Center
08:40AM 38.7339 -80.0175 158° South 436 502 25,000 -360 Descending Washington Center
08:41AM 38.6092 -79.9517 157° South 436 502 24,500 -960 Descending Washington Center
08:42AM 38.5008 -79.8922 157° South 430 495 23,100 -780 Descending Washington Center
08:43AM 38.3903 -79.8328 156° South 425 489 23,000 -240 Descending Washington Center
08:44AM 38.2797 -79.7711 131° Southeast 430 495 22,700 -900 Descending Washington Center
08:45AM 38.2064 -79.6639 125° Southeast 430 495 21,200 -900 Descending Washington Center
08:46AM 38.1336 -79.5306 124° Southeast 436 502 21,000 -120 Descending Washington Center
08:47AM 38.0608 -79.3947 126° Southeast 453 521 21,000  Level Washington Center
08:48AM 37.9836 -79.2592 124° Southeast 466 536 21,000  Level Washington Center
08:49AM 37.9108 -79.1214 110° East 471 542 21,000  Level Washington Center
08:50AM 37.8594 -78.9453 111° Southeast 476 548 21,000  Level Washington Center
08:51AM 37.8117 -78.7908 109° East 471 542 21,000  Level Washington Center
08:52AM 37.7678 -78.6339 111° Southeast 471 542 21,000 -1,140 Level Washington Center
08:53AM 37.7253 -78.4931 109° East 459 528 18,800 -2,880 Descending Washington Center
08:54AM 37.6867 -78.3550 110° East 438 504 15,300 -3,480 Descending Washington Center
08:55AM 37.6519 -78.2358 113° Southeast 411 473 11,900 -3,180 Descending Washington Center
08:56AM 37.6069 -78.1006 110° East 392 451 9,100 -1,680 Descending Washington Center
08:57AM 37.5756 -77.9947 115° Southeast 355 409 8,600 -1,080 Descending Washington Center
08:58AM 37.5400 -77.8967 132° Southeast 326 375 7,000 -2,040 Descending Washington Center
08:59AM 37.4872 -77.8217 131° Southeast 300 345 4,500 -1,500 Descending Washington Center
09:00AM 37.4406 -77.7550 132° Southeast 286 329 4,000 -300 Descending Washington Center
09:01AM 37.3936 -77.6883 130° Southeast 268 308 4,000  Level Washington Center
09:01AM 37.3531 -77.6272 132° Southeast 244 281 4,000  Level Washington Center
09:03AM 37.3081 -77.5633 95° East 239 275 4,000 -300 Level Washington Center
09:04AM 37.3031 -77.4900 59° Northeast 216 249 3,500 -840 Descending Washington Center
09:05AM 37.3333 -77.4256 36° Northeast 197 227 2,400 -540 Descending Washington Center
09:07AM 37.4167 -77.3500 360° North 141 162 1,800 -420 Descending Potomac TRACON
09:08AM 37.4500 -77.3500 22° Northeast 105 121 1,100 -600 Descending Potomac TRACON
09:09AM 37.4833 -77.3333 22° Northeast 108 124 600 -540 Descending Potomac TRACON